Regional Weather Roundup
Issued by NWS

Home | Current Version | Previous Version | Text Only | Print | Product List | Glossary On
Versions: 1 2 3 4 5 6 7 8 9 10 11 12 13 14 15 16 17 18 19 20 21 22 23 24 25 26 27 28 29 30 31 32 33 34 35 36 37 38 39 40 41 42 43 44 45 46 47 48 49 50
000
ASUS43 KMPX 221801
RWRMN
WEATHER ROUNDUP FOR MINNESOTA
NATIONAL WEATHER SERVICE TWIN CITIES/CHANHASSEN MN
100 PM CDT SUN OCT 22 2017


NOTE: "FAIR" INDICATES FEW OR NO CLOUDS BELOW 12,000 FEET WITH NO
SIGNIFICANT WEATHER AND/OR OBSTRUCTIONS TO VISIBILITY. N/A MEANS
CURRENT SKY AND/OR WEATHER CONDITIONS ARE NOT AVAILABLE.

MNZ060>063-068>070-221900-
   Twin Cities Metro

CITY           SKY/WX    TMP DP  RH WIND       PRES   REMARKS
TWIN CITIES    MOSUNNY   60  40  47 W13       29.98F
6HR MIN TEMP:  48; 6HR MAX TEMP:  60;

ST PAUL        SUNNY     58  40  51 W9        29.99F
CRYSTAL        SUNNY     60  35  39 W13G23    29.97F
BLAINE         MOSUNNY   61  39  44 W10       29.97F
LAKEVILLE      SUNNY     59  39  47 W8        29.99F
EDEN PRAIRIE   SUNNY     60  39  45 W13       29.98F
6HR MIN TEMP:  46; 6HR MAX TEMP:  61;

SOUTH ST PAUL  SUNNY     59  38  44 W9        29.99F
LAKE ELMO      FAIR      59  41  51 SW9       29.99F
$$
MNZ001>005-007-008-013>017-022>024-027-028-221900-
   Northwest Minnesota

CITY           SKY/WX    TMP DP  RH WIND       PRES   REMARKS
BEMIDJI        SUNNY     55  32  41 W17G25    29.85F
HALLOCK        SUNNY     59  30  33 SW18      29.74F
ROSEAU         SUNNY     55  36  47 SW18G26   29.74F
WARROAD        SUNNY     54  36  50 W21G28    29.74F
CROOKSTON      SUNNY     61  30  31 SW17G23   29.80F
FOSSTON        SUNNY     57  28  33 SW16G23   29.84F
DETROIT LAKES  SUNNY     55  32  41 SW13G21   29.89F
MOORHEAD       SUNNY     61  30  31 SW13G18   29.87F
PARK RAPIDS    SUNNY     58  32  37 W21G30    29.88F
MAHNOMEN       FAIR      58  32  38 SW20      29.85F
$$
MNZ006-009>011-018-025>026-221900-
   North Central Minnesota

CITY           SKY/WX    TMP DP  RH WIND       PRES   REMARKS
BAUDETTE       SUNNY     55  33  43 W15G35    29.75S
FLAG ISLAND    SUNNY     52  34  50 SW21G28   29.69S
INTL FALLS     SUNNY     56  34  43 W18G31    29.77S
6HR MIN TEMP:  42; 6HR MAX TEMP:  56;

WASKISH        SUNNY     54  39  58 SW17G26   29.81F
BIG FORK       SUNNY     55  30  38 W14G28    29.83F
LONGVILLE      SUNNY     57  32  38 W10G20    29.88F
GRAND RAPIDS   SUNNY     55  32  41 W12G20    29.89S
CRANE LAKE     SUNNY     54  36  50 SW6G22    29.81S
ORR            SUNNY     55  32  41 SW15G23   29.79S
COOK           SUNNY     55  36  47 W13G24    29.83S
WALKER         FAIR      56  32  39 W10G23    29.87F
$$
MNZ012-019>021-037-221900-
   Northeast Minnesota

CITY           SKY/WX    TMP DP  RH WIND       PRES   REMARKS
DULUTH         MOSUNNY   54  38  54 W14G24    29.88F
6HR MIN TEMP:  45; 6HR MAX TEMP:  54;

ELY            CLOUDY    52  36  54 W15       29.82F
HIBBING        SUNNY     54  32  43 W14G22    29.86F
EVELETH        SUNNY     55  25  31 SW16G22   29.86F
DULUTH HARBOR  MOSUNNY   55  41  58 W20       29.89F
TWO HARBORS    PTSUNNY   55  43  62 SW8G18    29.85F
SILVER BAY     CLOUDY    54  39  58 SW7       29.83F
G MARAIS ARPRT CLOUDY    46  36  66 SW8       29.82F
$$
MNZ029>031-032-039>041-046>048-054>057-064-221900-
   West Central Minnesota

CITY           SKY/WX    TMP DP  RH WIND       PRES   REMARKS
FERGUS FALLS   SUNNY     59  36  41 SW14      29.91F
WHEATON        SUNNY     63  28  27 SW16      29.93F
MORRIS         SUNNY     63  34  34 W13G22    29.93F
ALEXANDRIA     SUNNY     57  36  45 SW13      29.96F
ELBOW LAKE     FAIR      59  34  39 SW12G17   29.93F
WADENA         SUNNY     55  36  47 SW13      29.91F
GLENWOOD       SUNNY     57  36  44 W13       29.96F
APPLETON       SUNNY     64  28  25 SW9       29.95F
BENSON         SUNNY     63  30  29 W14       29.97F
ORTONVILLE     SUNNY     61  30  31 NW16      29.94F
MADISON        SUNNY     64  30  27 W14       29.96F
WILLMAR        FAIR      61  37  41 W12       29.98F
$$
MNZ033>034-036-042>043-049>051-058-059-221900-
   Central Minnesota

CITY           SKY/WX    TMP DP  RH WIND       PRES   REMARKS
ST CLOUD       SUNNY     59  36  42 W15       29.96F
6HR MIN TEMP:  42; 6HR MAX TEMP:  59;

SAUK CENTRE    FAIR      57  37  47 W9G16     29.96F
PAYNESVILLE    SUNNY     58  37  44 SW12      29.98F
AITKIN         SUNNY     55  30  38 W12G22    29.90S
PINE RIVER     SUNNY     54  32  43 W10G18    29.93F
BRAINERD       SUNNY     59  30  33 W16G26    29.93S
STAPLES        SUNNY     57  30  35 SW12G17   29.92F
LONG PRAIRIE   FAIR      55  34  44 S13       29.95F
LITTLE FALLS   SUNNY     57  23  26 W10       29.94F
LITCHFIELD     SUNNY     61  37  41 W9        29.99F
BUFFALO        SUNNY     59  36  42 W10       29.99F
MAPLE LAKE     SUNNY     61  40  46 SW8       29.98F
HUTCHINSON     SUNNY     61  38  43 SW8       30.00F
$$
MNZ037-044-045-052-053-221900-
   East Central Minnesota

CITY           SKY/WX    TMP DP  RH WIND       PRES   REMARKS
PRINCETON      SUNNY     63  36  36 SW12G17   29.96F
MORA           SUNNY     55  36  47 W13G18    29.96F
CAMBRIDGE      SUNNY     61  43  51 SW12G18   29.96F
RUSH CITY      MOSUNNY   58  40  49 W8        29.96F
MOOSE LAKE     SUNNY     55  34  44 W10G22    29.90S
HINCKLEY       FAIR      57  41  54 SW10G21   29.94F
CLOQUET        SUNNY     55  32  41 W15G21    29.89S
MCGREGOR       SUNNY     55  34  44 W9        29.91F
$$
MNZ071>073-080-081-089-090-097-098-221900-
   Southwest Minnesota

CITY           SKY/WX    TMP DP  RH WIND       PRES   REMARKS
MONTEVIDEO     SUNNY     64  30  27 W6        29.97F
GRANITE FALLS  SUNNY     64  35  34 SW14G20   30.00F HAZE
CANBY          SUNNY     62  31  30 SW12G18   29.99F
MARSHALL       SUNNY     62  32  32 SW9       30.00F
REDWOOD FALLS  SUNNY     62  30  29 W13       29.99F
OLIVIA         SUNNY     61  32  33 W10       29.98F
PIPESTONE      SUNNY     61  28  29 SW12      30.01F
WORTHINGTON    SUNNY     60  33  36 SW12      30.04F
JACKSON        SUNNY     61  30  31 W14       30.03F
TRACY          SUNNY     62  32  32 SW12G18   30.01F
SLAYTON        SUNNY     60  32  34 SW14      30.03F
$$
MNZ065>067-074>077-082>085-091>093-221900-
   South Central Minnesota

CITY           SKY/WX    TMP DP  RH WIND       PRES   REMARKS
MANKATO        SUNNY     61  37  41 W15       30.01F
NEW ULM        SUNNY     61  34  36 W14G20    30.00F
ST JAMES       SUNNY     63  30  29 W13G18    30.02F
FAIRMONT       SUNNY     61  32  33 W13       30.03F
GLENCOE        SUNNY     61  35  37 W12       29.99F
FARIBAULT      SUNNY     61  37  41 W8G16     30.00F
OWATONNA       SUNNY     61  41  48 W9        30.01F
WASECA         SUNNY     59  37  44 W9        30.02F
$$
MNZ078>079-086>088-094>096-221900-
   Southeast Minnesota

CITY           SKY/WX    TMP DP  RH WIND       PRES   REMARKS
ROCHESTER      PTSUNNY   55  42  61 W9        30.02F
6HR MIN TEMP:  47; 6HR MAX TEMP:  55;

RED WING       CLOUDY    57  39  51 W7        29.99F
STANTON        SUNNY     60  40  47 W10       29.99F
DODGE CENTER   CLOUDY    55  37  50 W12G17    30.01F
WINONA         CLOUDY    54  43  66 W5        30.01F
AUSTIN         CLOUDY    57  37  47 NW12      30.02F
PRESTON        CLOUDY    51  41  67 NW6       30.02F
$$
ABBREVIATIONS USED IN REMARKS
   TC - TEMPERATURES IN CELSIUS
  WCI - WIND CHILL INDEX
   HX - HEAT INDEX
  VSB - VISIBILITY
$$




USA.gov is the U.S. government's official web portal to all federal, state and local government web resources and services.